| time (UTC) | temp F | wind direction | speed knots | gust knots | rain 1hr in | rain 24hr in | rain mn in | humidity % | barometer mb |
| 20260902231733 | 91 | 229 | 2.6 | 3.5 | 0.00 | 0.00 | 0.00 | 55 | 1016.3 |
| 20260902231231 | 91 | 233 | 3.5 | 5.2 | 0.00 | 0.00 | 0.00 | 55 | 1016.2 |
| 20260902230734 | 91 | 237 | 2.6 | 4.3 | 0.00 | 0.00 | 0.00 | 55 | 1016.3 |
| 20260902230231 | 92 | 230 | 2.6 | 3.5 | 0.00 | 0.00 | 0.00 | 54 | 1016.3 |
| 20260902225731 | 92 | 243 | 3.5 | 8.7 | 0.00 | 0.00 | 0.00 | 54 | 1016.3 |
| 20260902225233 | 92 | 238 | 4.3 | 14.8 | 0.00 | 0.00 | 0.00 | 54 | 1016.4 |
| 20260902224731 | 92 | 233 | 2.6 | 5.2 | 0.00 | 0.00 | 0.00 | 53 | 1016.4 |
| 20260902224231 | 92 | 236 | 3.5 | 4.3 | 0.00 | 0.00 | 0.00 | 53 | 1016.4 |
| 20260902223731 | 92 | 232 | 3.5 | 11.3 | 0.00 | 0.00 | 0.00 | 53 | 1016.4 |
| 20260902223231 | 92 | 229 | 2.6 | 7.0 | 0.00 | 0.00 | 0.00 | 54 | 1016.4 |
| 20260902222731 | 92 | 235 | 1.7 | 3.5 | 0.00 | 0.00 | 0.00 | 54 | 1016.4 |
| 20260902222231 | 92 | 238 | 4.3 | 7.0 | 0.00 | 0.00 | 0.00 | 54 | 1016.4 |
| 20260902221731 | 93 | 237 | 5.2 | 9.6 | 0.00 | 0.00 | 0.00 | 53 | 1016.4 |
| 20260902221231 | 93 | 232 | 2.6 | 5.2 | 0.00 | 0.00 | 0.00 | 53 | 1016.5 |
| 20260902220732 | 93 | 246 | 3.5 | 6.1 | 0.00 | 0.00 | 0.00 | 53 | 1016.5 |
| 20260902220233 | 93 | 235 | 3.5 | 6.1 | 0.00 | 0.00 | 0.00 | 53 | 1016.5 |
| 20260902215731 | 93 | 239 | 2.6 | 6.1 | 0.00 | 0.00 | 0.00 | 53 | 1016.5 |
| 20260902215231 | 93 | 246 | 3.5 | 4.3 | 0.00 | 0.00 | 0.00 | 52 | 1016.5 |
| 20260902214731 | 93 | 237 | 5.2 | 12.2 | 0.00 | 0.00 | 0.00 | 53 | 1016.5 |
| 20260902214231 | 93 | 235 | 3.5 | 4.3 | 0.00 | 0.00 | 0.00 | 52 | 1016.6 |
| 20260902213731 | 92 | 235 | 4.3 | 6.1 | 0.00 | 0.00 | 0.00 | 52 | 1016.5 |
| 20260902213231 | 92 | 236 | 4.3 | 5.2 | 0.00 | 0.00 | 0.00 | 53 | 1016.5 |
| 20260902212731 | 92 | 231 | 2.6 | 5.2 | 0.00 | 0.00 | 0.00 | 54 | 1016.5 |
| 20260902212231 | 92 | 242 | 3.5 | 5.2 | 0.00 | 0.00 | 0.00 | 54 | 1016.6 |
| 20260902211730 | 92 | 232 | 3.5 | 8.7 | 0.00 | 0.00 | 0.00 | 54 | 1016.6 |
| 20260902211232 | 92 | 252 | 4.3 | 7.8 | 0.00 | 0.00 | 0.00 | 52 | 1016.6 |
| 20260902210731 | 92 | 235 | 2.6 | 4.3 | 0.00 | 0.00 | 0.00 | 54 | 1016.6 |
| 20260902210231 | 93 | 228 | 3.5 | 7.8 | 0.00 | 0.00 | 0.00 | 53 | 1016.7 |
| 20260902205731 | 93 | 231 | 2.6 | 9.6 | 0.00 | 0.00 | 0.00 | 52 | 1016.7 |
| 20260902205231 | 93 | 228 | 0.9 | 3.5 | 0.00 | 0.00 | 0.00 | 52 | 1016.8 |
| 20260902204731 | 93 | 235 | 2.6 | 7.8 | 0.00 | 0.00 | 0.00 | 52 | 1016.8 |
| 20260902204231 | 93 | 232 | 2.6 | 5.2 | 0.00 | 0.00 | 0.00 | 51 | 1016.8 |
| 20260902203731 | 93 | 244 | 1.7 | 3.5 | 0.00 | 0.00 | 0.00 | 53 | 1016.8 |
| 20260902203231 | 93 | 234 | 4.3 | 6.1 | 0.00 | 0.00 | 0.00 | 52 | 1016.8 |
| 20260902202731 | 93 | 231 | 4.3 | 8.7 | 0.00 | 0.00 | 0.00 | 52 | 1016.8 |
| 20260902202231 | 93 | 237 | 1.7 | 2.6 | 0.00 | 0.00 | 0.00 | 53 | 1016.8 |
| 20260902201731 | 92 | 228 | 2.6 | 8.7 | 0.00 | 0.00 | 0.00 | 54 | 1016.9 |
| 20260902201233 | 93 | 229 | 2.6 | 3.5 | 0.00 | 0.00 | 0.00 | 53 | 1016.9 |
| 20260902200732 | 93 | 227 | 5.2 | 12.2 | 0.00 | 0.00 | 0.00 | 52 | 1016.9 |
| 20260902200232 | 93 | 238 | 3.5 | 4.3 | 0.00 | 0.00 | 0.00 | 52 | 1016.9 |
| 20260902195731 | 93 | 231 | 1.7 | 10.4 | 0.00 | 0.00 | 0.00 | 52 | 1016.9 |
| 20260902195231 | 93 | 234 | 2.6 | 3.5 | 0.00 | 0.00 | 0.00 | 51 | 1017.0 |
| 20260902194732 | 93 | 237 | 2.6 | 6.1 | 0.00 | 0.00 | 0.00 | 52 | 1017.1 |
| 20260902194231 | 93 | 240 | 4.3 | 5.2 | 0.00 | 0.00 | 0.00 | 52 | 1017.1 |
| 20260902193732 | 93 | 234 | 3.5 | 4.3 | 0.00 | 0.00 | 0.00 | 52 | 1017.2 |
| 20260902193231 | 93 | 229 | 2.6 | 7.8 | 0.00 | 0.00 | 0.00 | 50 | 1017.2 |
| 20260902192731 | 93 | 229 | 5.2 | 16.5 | 0.00 | 0.00 | 0.00 | 50 | 1017.3 |
| 20260902192231 | 93 | 238 | 2.6 | 4.3 | 0.00 | 0.00 | 0.00 | 51 | 1017.5 |
| 20260902191731 | 93 | 243 | 3.5 | 5.2 | 0.00 | 0.00 | 0.00 | 52 | 1017.5 |
| 20260902191232 | 93 | 235 | 5.2 | 12.2 | 0.00 | 0.00 | 0.00 | 50 | 1017.6 |
| 20260902190732 | 93 | 237 | 3.5 | 7.0 | 0.00 | 0.00 | 0.00 | 51 | 1017.6 |
| 20260902190231 | 93 | 238 | 3.5 | 5.2 | 0.00 | 0.00 | 0.00 | 51 | 1017.7 |
| 20260902185732 | 93 | 245 | 1.7 | 3.5 | 0.00 | 0.00 | 0.00 | 52 | 1017.7 |
| 20260902185231 | 94 | 242 | 4.3 | 7.0 | 0.00 | 0.00 | 0.00 | 51 | 1017.7 |
| 20260902184730 | 93 | 242 | 1.7 | 3.5 | 0.00 | 0.00 | 0.00 | 52 | 1017.7 |
| 20260902184231 | 92 | 233 | 1.7 | 3.5 | 0.00 | 0.00 | 0.00 | 52 | 1017.8 |
| 20260902183733 | 92 | 240 | 3.5 | 5.2 | 0.00 | 0.00 | 0.00 | 53 | 1017.8 |
| 20260902183231 | 92 | 232 | 4.3 | 7.0 | 0.00 | 0.00 | 0.00 | 52 | 1017.9 |
| 20260902182231 | 92 | 232 | 3.5 | 5.2 | 0.00 | 0.00 | 0.00 | 52 | 1017.9 |
| 20260902181731 | 93 | 243 | 4.3 | 7.0 | 0.00 | 0.00 | 0.00 | 53 | 1018.0 |
| 20260902181231 | 92 | 231 | 3.5 | 4.3 | 0.00 | 0.00 | 0.00 | 54 | 1018.0 |
| 20260902180732 | 92 | 238 | 3.5 | 5.2 | 0.00 | 0.00 | 0.00 | 53 | 1017.9 |
| 20260902180233 | 92 | 235 | 3.5 | 6.1 | 0.00 | 0.00 | 0.00 | 54 | 1018.0 |
| 20260902175731 | 92 | 232 | 2.6 | 6.1 | 0.00 | 0.00 | 0.00 | 55 | 1018.0 |
| 20260902175231 | 92 | 244 | 4.3 | 7.8 | 0.00 | 0.00 | 0.00 | 54 | 1018.1 |
| 20260902174731 | 92 | 234 | 3.5 | 4.3 | 0.00 | 0.00 | 0.00 | 55 | 1018.2 |
| 20260902174232 | 91 | 237 | 4.3 | 8.7 | 0.00 | 0.00 | 0.00 | 56 | 1018.3 |
| 20260902173731 | 91 | 251 | 2.6 | 3.5 | 0.00 | 0.00 | 0.00 | 56 | 1018.4 |
| 20260902173231 | 91 | 232 | 3.5 | 9.6 | 0.00 | 0.00 | 0.00 | 56 | 1018.4 |
| 20260902172732 | 91 | 237 | 3.5 | 7.8 | 0.00 | 0.00 | 0.00 | 56 | 1018.5 |
| 20260902172232 | 91 | 229 | 4.3 | 7.0 | 0.00 | 0.00 | 0.00 | 59 | 1018.5 |
| 20260902171732 | 91 | 234 | 4.3 | 13.0 | 0.00 | 0.00 | 0.00 | 58 | 1018.5 |
| 20260902171231 | 90 | 231 | 3.5 | 5.2 | 0.00 | 0.00 | 0.00 | 59 | 1018.6 |
| 20260902170731 | 90 | 237 | 3.5 | 7.0 | 0.00 | 0.00 | 0.00 | 59 | 1018.6 |
| 20260902170231 | 90 | 232 | 3.5 | 4.3 | 0.00 | 0.00 | 0.00 | 59 | 1018.6 |
| 20260902165231 | 90 | 228 | 5.2 | 7.0 | 0.00 | 0.00 | 0.00 | 59 | 1018.6 |
| 20260902164732 | 90 | 232 | 1.7 | 3.5 | 0.00 | 0.00 | 0.00 | 60 | 1018.7 |
| 20260902164232 | 90 | 230 | 3.5 | 4.3 | 0.00 | 0.00 | 0.00 | 60 | 1018.7 |
| 20260902163731 | 90 | 229 | 3.5 | 5.2 | 0.00 | 0.00 | 0.00 | 59 | 1018.7 |
| 20260902163232 | 90 | 232 | 3.5 | 5.2 | 0.00 | 0.00 | 0.00 | 60 | 1018.8 |
| 20260902162732 | 89 | 232 | 3.5 | 4.3 | 0.00 | 0.00 | 0.00 | 61 | 1018.7 |
| 20260902162231 | 89 | 230 | 1.7 | 3.5 | 0.00 | 0.00 | 0.00 | 62 | 1018.7 |
| 20260902161731 | 89 | 228 | 3.5 | 5.2 | 0.00 | 0.00 | 0.00 | 61 | 1018.6 |
| 20260902161233 | 89 | 228 | 2.6 | 3.5 | 0.00 | 0.00 | 0.00 | 62 | 1018.7 |
| 20260902160732 | 89 | 231 | 3.5 | 4.3 | 0.00 | 0.00 | 0.00 | 63 | 1018.8 |
| 20260902160232 | 89 | 228 | 3.5 | 4.3 | 0.00 | 0.00 | 0.00 | 62 | 1018.8 |
| 20260902155731 | 88 | 227 | 2.6 | 3.5 | 0.00 | 0.00 | 0.00 | 63 | 1018.8 |
| 20260902155232 | 88 | 231 | 3.5 | 4.3 | 0.00 | 0.00 | 0.00 | 63 | 1018.8 |
| 20260902154732 | 88 | 227 | 1.7 | 3.5 | 0.00 | 0.00 | 0.00 | 63 | 1018.8 |
| 20260902154231 | 87 | 231 | 3.5 | 6.1 | 0.00 | 0.00 | 0.00 | 64 | 1018.9 |
| 20260902153731 | 88 | 227 | 2.6 | 4.3 | 0.00 | 0.00 | 0.00 | 64 | 1018.9 |
| 20260902153231 | 88 | 227 | 1.7 | 3.5 | 0.00 | 0.00 | 0.00 | 65 | 1019.0 |
| 20260902152731 | 88 | 229 | 2.6 | 3.5 | 0.00 | 0.00 | 0.00 | 64 | 1019.0 |
| 20260902152233 | 87 | 228 | 2.6 | 4.3 | 0.00 | 0.00 | 0.00 | 65 | 1019.0 |
| 20260902151731 | 87 | 228 | 2.6 | 3.5 | 0.00 | 0.00 | 0.00 | 66 | 1019.0 |
| 20260902151231 | 87 | 228 | 2.6 | 3.5 | 0.00 | 0.00 | 0.00 | 65 | 1019.0 |
| 20260902150731 | 87 | 229 | 3.5 | 5.2 | 0.00 | 0.00 | 0.00 | 66 | 1019.0 |
| 20260902150231 | 87 | 227 | 2.6 | 3.5 | 0.00 | 0.00 | 0.00 | 66 | 1019.1 |
| 20260902145731 | 87 | 223 | 3.5 | 5.2 | 0.00 | 0.00 | 0.00 | 66 | 1019.0 |
| 20260902145232 | 86 | 227 | 2.6 | 3.5 | 0.00 | 0.00 | 0.00 | 67 | 1019.1 |
| 20260902144731 | 86 | 228 | 2.6 | 3.5 | 0.00 | 0.00 | 0.00 | 68 | 1019.1 |
| 20260902144231 | 85 | 230 | 3.5 | 4.3 | 0.00 | 0.00 | 0.00 | 68 | 1019.0 |
| 20260902143731 | 85 | 227 | 2.6 | 3.5 | 0.00 | 0.00 | 0.00 | 69 | 1019.1 |
| 20260902143231 | 85 | 225 | 1.7 | 2.6 | 0.00 | 0.00 | 0.00 | 70 | 1019.0 |
| 20260902142731 | 84 | 227 | 2.6 | 5.2 | 0.00 | 0.00 | 0.00 | 70 | 1019.1 |
| 20260902142233 | 84 | 226 | 3.5 | 9.6 | 0.00 | 0.00 | 0.00 | 70 | 1019.0 |
| 20260902141732 | 84 | 228 | 1.7 | 1.7 | 0.00 | 0.00 | 0.00 | 71 | 1019.1 |
| 20260902141232 | 83 | 228 | 1.7 | 2.6 | 0.00 | 0.00 | 0.00 | 71 | 1019.1 |
| 20260902140732 | 83 | 239 | 2.6 | 3.5 | 0.00 | 0.00 | 0.00 | 71 | 1019.0 |
| 20260902140231 | 83 | 234 | 2.6 | 5.2 | 0.00 | 0.00 | 0.00 | 71 | 1019.0 |
| 20260902135731 | 83 | 227 | 2.6 | 5.2 | 0.00 | 0.00 | 0.00 | 71 | 1019.0 |
| 20260902135231 | 83 | 226 | 1.7 | 2.6 | 0.00 | 0.00 | 0.00 | 72 | 1019.0 |
| 20260902134733 | 82 | 230 | 1.7 | 3.5 | 0.00 | 0.00 | 0.00 | 73 | 1019.1 |
| 20260902134231 | 82 | 238 | 2.6 | 3.5 | 0.00 | 0.00 | 0.00 | 72 | 1019.0 |
| 20260902133731 | 82 | 229 | 3.5 | 4.3 | 0.00 | 0.00 | 0.00 | 72 | 1019.0 |
| 20260902133231 | 82 | 230 | 2.6 | 3.5 | 0.00 | 0.00 | 0.00 | 73 | 1019.0 |
| 20260902132731 | 82 | 231 | 2.6 | 3.5 | 0.00 | 0.00 | 0.00 | 73 | 1018.9 |
| 20260902132233 | 82 | 231 | 2.6 | 3.5 | 0.00 | 0.00 | 0.00 | 74 | 1018.9 |
| 20260902131731 | 81 | 240 | 3.5 | 5.2 | 0.00 | 0.00 | 0.00 | 74 | 1018.9 |
| 20260902131231 | 81 | 231 | 1.7 | 3.5 | 0.00 | 0.00 | 0.00 | 75 | 1018.9 |
| 20260902130731 | 81 | 225 | 1.7 | 2.6 | 0.00 | 0.00 | 0.00 | 75 | 1019.0 |
| 20260902130231 | 80 | 229 | 2.6 | 4.3 | 0.00 | 0.00 | 0.00 | 76 | 1019.0 |
| 20260902125731 | 80 | 230 | 1.7 | 3.5 | 0.00 | 0.00 | 0.00 | 76 | 1019.0 |
| 20260902125231 | 80 | 233 | 1.7 | 3.5 | 0.00 | 0.00 | 0.00 | 77 | 1019.0 |
| 20260902124731 | 79 | 231 | 1.7 | 3.5 | 0.00 | 0.00 | 0.00 | 78 | 1019.0 |
| 20260902124232 | 79 | 234 | 2.6 | 3.5 | 0.00 | 0.00 | 0.00 | 79 | 1018.9 |
| 20260902123731 | 78 | 228 | 1.7 | 6.1 | 0.00 | 0.00 | 0.00 | 81 | 1018.9 |
| 20260902123232 | 78 | 227 | 1.7 | 2.6 | 0.00 | 0.00 | 0.00 | 82 | 1018.8 |
| 20260902122731 | 77 | 227 | 1.7 | 2.6 | 0.00 | 0.00 | 0.00 | 83 | 1018.8 |
| 20260902122231 | 77 | 226 | 1.7 | 2.6 | 0.00 | 0.00 | 0.00 | 84 | 1018.8 |
| 20260902121731 | 77 | 227 | 1.7 | 1.7 | 0.00 | 0.00 | 0.00 | 84 | 1018.7 |
| 20260902121231 | 77 | 227 | 1.7 | 1.7 | 0.00 | 0.00 | 0.00 | 85 | 1018.7 |
| 20260902120732 | 76 | 227 | 1.7 | 1.7 | 0.00 | 0.00 | 0.00 | 85 | 1018.7 |
| 20260902120231 | 76 | 227 | 1.7 | 1.7 | 0.00 | 0.00 | 0.00 | 86 | 1018.8 |
| 20260902115731 | 76 | 227 | 1.7 | 1.7 | 0.00 | 0.00 | 0.00 | 86 | 1018.7 |
| 20260902115231 | 76 | 227 | 1.7 | 1.7 | 0.00 | 0.00 | 0.00 | 86 | 1018.6 |
| 20260902114731 | 75 | 227 | 0.9 | 1.7 | 0.00 | 0.00 | 0.00 | 86 | 1018.5 |
| 20260902114231 | 75 | 226 | 1.7 | 1.7 | 0.00 | 0.00 | 0.00 | 86 | 1018.5 |
| 20260902113731 | 75 | 225 | 1.7 | 1.7 | 0.00 | 0.00 | 0.00 | 87 | 1018.4 |
| 20260902113231 | 75 | 221 | 1.7 | 2.6 | 0.00 | 0.00 | 0.00 | 87 | 1018.4 |
| 20260902112731 | 75 | 221 | 1.7 | 2.6 | 0.00 | 0.00 | 0.00 | 87 | 1018.3 |
| 20260902112231 | 75 | 220 | 1.7 | 2.6 | 0.00 | 0.00 | 0.00 | 87 | 1018.3 |
| 20260902111732 | 75 | 218 | 1.7 | 1.7 | 0.00 | 0.00 | 0.00 | 87 | 1018.2 |
| 20260902111231 | 75 | 218 | 1.7 | 2.6 | 0.00 | 0.00 | 0.00 | 87 | 1018.2 |
| 20260902110731 | 75 | 211 | 3.5 | 4.3 | 0.00 | 0.00 | 0.00 | 87 | 1018.2 |
| 20260902110232 | 75 | 195 | 3.5 | 4.3 | 0.00 | 0.00 | 0.00 | 87 | 1018.2 |
| 20260902105731 | 75 | 191 | 3.5 | 5.2 | 0.00 | 0.00 | 0.00 | 86 | 1018.2 |
| 20260902105231 | 75 | 193 | 3.5 | 4.3 | 0.00 | 0.00 | 0.00 | 86 | 1018.2 |
| 20260902104730 | 75 | 194 | 3.5 | 5.2 | 0.00 | 0.00 | 0.00 | 86 | 1018.2 |
| 20260902104231 | 75 | 192 | 3.5 | 6.1 | 0.00 | 0.00 | 0.00 | 86 | 1018.3 |
| 20260902103731 | 75 | 192 | 3.5 | 4.3 | 0.00 | 0.00 | 0.00 | 86 | 1018.3 |
| 20260902103231 | 75 | 197 | 3.5 | 4.3 | 0.00 | 0.00 | 0.00 | 86 | 1018.3 |
| 20260902102731 | 75 | 186 | 3.5 | 4.3 | 0.00 | 0.00 | 0.00 | 86 | 1018.3 |
| 20260902102231 | 75 | 191 | 3.5 | 4.3 | 0.00 | 0.00 | 0.00 | 86 | 1018.2 |
| 20260902101731 | 75 | 195 | 3.5 | 4.3 | 0.00 | 0.00 | 0.00 | 86 | 1018.2 |
| 20260902101232 | 75 | 191 | 3.5 | 3.5 | 0.00 | 0.00 | 0.00 | 86 | 1018.2 |
| 20260902100731 | 75 | 190 | 3.5 | 4.3 | 0.00 | 0.00 | 0.00 | 86 | 1018.2 |
| 20260902100231 | 75 | 193 | 3.5 | 4.3 | 0.00 | 0.00 | 0.00 | 87 | 1018.2 |
| 20260902095731 | 75 | 182 | 3.5 | 4.3 | 0.00 | 0.00 | 0.00 | 88 | 1018.1 |
| 20260902095233 | 75 | 197 | 3.5 | 4.3 | 0.00 | 0.00 | 0.00 | 88 | 1018.1 |
| 20260902094730 | 74 | 185 | 3.5 | 3.5 | 0.00 | 0.00 | 0.00 | 89 | 1018.1 |
| 20260902094231 | 74 | 190 | 3.5 | 3.5 | 0.00 | 0.00 | 0.00 | 89 | 1018.0 |
| 20260902093731 | 74 | 188 | 2.6 | 3.5 | 0.00 | 0.00 | 0.00 | 89 | 1018.1 |
| 20260902093232 | 74 | 185 | 2.6 | 3.5 | 0.00 | 0.00 | 0.00 | 88 | 1018.1 |
| 20260902092732 | 74 | 192 | 2.6 | 3.5 | 0.00 | 0.00 | 0.00 | 88 | 1018.1 |
| 20260902092231 | 74 | 193 | 2.6 | 4.3 | 0.00 | 0.00 | 0.00 | 88 | 1018.1 |
| 20260902091731 | 74 | 195 | 2.6 | 3.5 | 0.00 | 0.00 | 0.00 | 88 | 1018.1 |
| 20260902091231 | 74 | 194 | 3.5 | 3.5 | 0.00 | 0.00 | 0.00 | 88 | 1018.1 |
| 20260902090731 | 74 | 194 | 2.6 | 4.3 | 0.00 | 0.00 | 0.00 | 87 | 1018.1 |
| 20260902090233 | 75 | 189 | 2.6 | 3.5 | 0.00 | 0.00 | 0.00 | 87 | 1018.0 |
| 20260902085731 | 75 | 176 | 2.6 | 4.3 | 0.00 | 0.00 | 0.00 | 87 | 1017.9 |
| 20260902085231 | 75 | 197 | 3.5 | 4.3 | 0.00 | 0.00 | 0.00 | 87 | 1017.9 |
| 20260902084731 | 75 | 196 | 3.5 | 4.3 | 0.00 | 0.00 | 0.00 | 87 | 1017.8 |
| 20260902084231 | 75 | 192 | 2.6 | 3.5 | 0.00 | 0.00 | 0.00 | 87 | 1017.7 |
| 20260902083731 | 75 | 190 | 2.6 | 3.5 | 0.00 | 0.00 | 0.00 | 87 | 1017.6 |
| 20260902083231 | 75 | 182 | 2.6 | 3.5 | 0.00 | 0.00 | 0.00 | 87 | 1017.6 |
| 20260902082731 | 75 | 170 | 2.6 | 3.5 | 0.00 | 0.00 | 0.00 | 87 | 1017.6 |
| 20260902082231 | 75 | 166 | 2.6 | 3.5 | 0.00 | 0.00 | 0.00 | 87 | 1017.6 |
| 20260902081733 | 75 | 186 | 0.9 | 3.5 | 0.00 | 0.00 | 0.00 | 87 | 1017.6 |
| 20260902081232 | 75 | 162 | 1.7 | 2.6 | 0.00 | 0.00 | 0.00 | 87 | 1017.6 |
| 20260902080731 | 75 | 177 | 1.7 | 4.3 | 0.00 | 0.00 | 0.00 | 87 | 1017.5 |
| 20260902080234 | 75 | 192 | 1.7 | 3.5 | 0.00 | 0.00 | 0.00 | 87 | 1017.5 |
| 20260902075731 | 74 | 150 | 1.7 | 3.5 | 0.00 | 0.00 | 0.00 | 88 | 1017.5 |
| 20260902075231 | 74 | 154 | 1.7 | 2.6 | 0.00 | 0.00 | 0.00 | 88 | 1017.5 |
| 20260902074731 | 74 | 170 | 2.6 | 4.3 | 0.00 | 0.00 | 0.00 | 88 | 1017.5 |
| 20260902074231 | 74 | 132 | 1.7 | 2.6 | 0.00 | 0.00 | 0.00 | 88 | 1017.3 |
| 20260902073733 | 74 | 170 | 1.7 | 3.5 | 0.00 | 0.00 | 0.00 | 88 | 1017.3 |
| 20260902073231 | 74 | 139 | 1.7 | 3.5 | 0.00 | 0.00 | 0.00 | 87 | 1017.5 |
| 20260902072731 | 74 | 179 | 3.5 | 4.3 | 0.00 | 0.00 | 0.00 | 87 | 1017.5 |
| 20260902072232 | 74 | 176 | 3.5 | 4.3 | 0.00 | 0.00 | 0.00 | 87 | 1017.5 |
| 20260902071731 | 74 | 179 | 2.6 | 3.5 | 0.00 | 0.00 | 0.00 | 86 | 1017.5 |
| 20260902071232 | 75 | 174 | 3.5 | 4.3 | 0.00 | 0.00 | 0.00 | 86 | 1017.5 |
| 20260902070731 | 75 | 179 | 2.6 | 4.3 | 0.00 | 0.00 | 0.00 | 85 | 1017.5 |
| 20260902070231 | 75 | 177 | 2.6 | 5.2 | 0.00 | 0.00 | 0.00 | 85 | 1017.5 |
| 20260902065732 | 75 | 178 | 3.5 | 4.3 | 0.00 | 0.00 | 0.00 | 84 | 1017.5 |
| 20260902065232 | 76 | 176 | 3.5 | 4.3 | 0.00 | 0.00 | 0.00 | 84 | 1017.6 |
| 20260902064732 | 76 | 177 | 3.5 | 4.3 | 0.00 | 0.00 | 0.00 | 83 | 1017.5 |
| 20260902064231 | 76 | 179 | 3.5 | 4.3 | 0.00 | 0.00 | 0.00 | 82 | 1017.5 |
| 20260902063731 | 77 | 181 | 3.5 | 4.3 | 0.00 | 0.00 | 0.00 | 81 | 1017.5 |
| 20260902063231 | 77 | 180 | 3.5 | 4.3 | 0.00 | 0.00 | 0.00 | 81 | 1017.5 |
| 20260902062733 | 78 | 177 | 3.5 | 4.3 | 0.00 | 0.00 | 0.00 | 80 | 1017.5 |
| 20260902062231 | 78 | 184 | 3.5 | 4.3 | 0.00 | 0.00 | 0.00 | 79 | 1017.5 |
| 20260902061731 | 78 | 180 | 2.6 | 4.3 | 0.00 | 0.00 | 0.00 | 79 | 1017.6 |
| 20260902061235 | 78 | 178 | 2.6 | 3.5 | 0.00 | 0.00 | 0.00 | 79 | 1017.5 |
| 20260902060731 | 78 | 178 | 2.6 | 4.3 | 0.00 | 0.00 | 0.00 | 79 | 1017.5 |
| 20260902060232 | 78 | 177 | 2.6 | 4.3 | 0.00 | 0.00 | 0.00 | 79 | 1017.5 |
| 20260902055731 | 78 | 178 | 3.5 | 4.3 | 0.00 | 0.00 | 0.00 | 78 | 1017.5 |
| 20260902055231 | 78 | 178 | 3.5 | 4.3 | 0.00 | 0.00 | 0.00 | 79 | 1017.5 |
| 20260902054731 | 78 | 182 | 3.5 | 4.3 | 0.00 | 0.00 | 0.00 | 79 | 1017.5 |
| 20260902054232 | 78 | 179 | 3.5 | 4.3 | 0.00 | 0.00 | 0.00 | 80 | 1017.5 |
| 20260902053731 | 77 | 180 | 3.5 | 4.3 | 0.00 | 0.00 | 0.00 | 80 | 1017.6 |
| 20260902053231 | 78 | 179 | 3.5 | 4.3 | 0.00 | 0.00 | 0.00 | 80 | 1017.6 |
| 20260902052731 | 78 | 181 | 3.5 | 4.3 | 0.00 | 0.00 | 0.00 | 80 | 1017.6 |
| 20260902052231 | 78 | 177 | 3.5 | 5.2 | 0.00 | 0.00 | 0.00 | 80 | 1017.6 |
| 20260902051731 | 78 | 176 | 3.5 | 5.2 | 0.00 | 0.00 | 0.00 | 80 | 1017.6 |
| 20260902051231 | 77 | 175 | 2.6 | 4.3 | 0.00 | 0.00 | 0.00 | 81 | 1017.6 |
| 20260902050731 | 77 | 179 | 2.6 | 4.3 | 0.00 | 0.00 | 0.00 | 81 | 1017.6 |
| 20260902050231 | 77 | 180 | 2.6 | 5.2 | 0.00 | 0.00 | 0.00 | 82 | 1017.5 |
| 20260902045731 | 77 | 182 | 3.5 | 5.2 | 0.00 | 0.00 | 0.00 | 82 | 1017.5 |
| 20260902044755 | 77 | 178 | 3.5 | 4.3 | 0.00 | 0.00 | 0.00 | 82 | 1017.6 |
| 20260902044231 | 77 | 179 | 3.5 | 5.2 | 0.00 | 0.00 | 0.00 | 82 | 1017.6 |
| 20260902043731 | 77 | 183 | 3.5 | 4.3 | 0.00 | 0.00 | 0.00 | 81 | 1017.6 |
| 20260902043232 | 77 | 182 | 2.6 | 3.5 | 0.00 | 0.00 | 0.00 | 81 | 1017.5 |
| 20260902042731 | 78 | 175 | 3.5 | 4.3 | 0.00 | 0.00 | 0.00 | 81 | 1017.5 |
| 20260902042231 | 78 | 177 | 3.5 | 4.3 | 0.00 | 0.00 | 0.00 | 80 | 1017.6 |
| 20260902041731 | 78 | 183 | 3.5 | 5.2 | 0.00 | 0.00 | 0.00 | 80 | 1017.6 |
| 20260902041231 | 78 | 177 | 2.6 | 4.3 | 0.00 | 0.00 | 0.00 | 79 | 1017.6 |
| 20260902040731 | 78 | 178 | 3.5 | 5.2 | 0.00 | 0.00 | 0.00 | 79 | 1017.6 |
| 20260902040231 | 78 | 179 | 3.5 | 4.3 | 0.00 | 0.00 | 0.00 | 78 | 1017.7 |
| 20260902035732 | 79 | 167 | 2.6 | 3.5 | 0.00 | 0.00 | 0.00 | 78 | 1017.7 |
| 20260902035231 | 79 | 142 | 3.5 | 4.3 | 0.00 | 0.00 | 0.00 | 78 | 1017.7 |
| 20260902034732 | 79 | 144 | 3.5 | 4.3 | 0.00 | 0.00 | 0.00 | 78 | 1017.7 |
| 20260902034231 | 79 | 133 | 2.6 | 3.5 | 0.00 | 0.00 | 0.00 | 78 | 1017.7 |
| 20260902033731 | 79 | 77 | 2.6 | 4.3 | 0.00 | 0.00 | 0.00 | 78 | 1017.7 |
| 20260902033232 | 79 | 70 | 2.6 | 3.5 | 0.00 | 0.00 | 0.00 | 78 | 1017.6 |
| 20260902032731 | 79 | 94 | 3.5 | 4.3 | 0.00 | 0.00 | 0.00 | 78 | 1017.6 |
| 20260902032231 | 79 | 136 | 1.7 | 3.5 | 0.00 | 0.00 | 0.00 | 77 | 1017.5 |
| 20260902031732 | 79 | 169 | 2.6 | 4.3 | 0.00 | 0.00 | 0.00 | 77 | 1017.5 |
| 20260902031231 | 79 | 135 | 1.7 | 3.5 | 0.00 | 0.00 | 0.00 | 77 | 1017.5 |
| 20260902030731 | 79 | 157 | 0.9 | 1.7 | 0.00 | 0.00 | 0.00 | 77 | 1017.5 |
| 20260902030231 | 79 | 141 | 1.7 | 3.5 | 0.00 | 0.00 | 0.00 | 77 | 1017.5 |
| 20260902025732 | 79 | 102 | 3.5 | 6.1 | 0.00 | 0.00 | 0.00 | 77 | 1017.6 |
| 20260902025235 | 79 | 102 | 3.5 | 5.2 | 0.00 | 0.00 | 0.00 | 76 | 1017.6 |
| 20260902024731 | 80 | 103 | 3.5 | 6.1 | 0.00 | 0.00 | 0.00 | 75 | 1017.6 |
| 20260902024231 | 80 | 102 | 3.5 | 5.2 | 0.00 | 0.00 | 0.00 | 75 | 1017.6 |
| 20260902023732 | 80 | 99 | 4.3 | 6.1 | 0.00 | 0.00 | 0.00 | 74 | 1017.6 |
| 20260902023231 | 80 | 100 | 3.5 | 5.2 | 0.00 | 0.00 | 0.00 | 74 | 1017.6 |
| 20260902022731 | 81 | 101 | 4.3 | 5.2 | 0.00 | 0.00 | 0.00 | 73 | 1017.6 |
| 20260902022233 | 81 | 102 | 3.5 | 5.2 | 0.00 | 0.00 | 0.00 | 73 | 1017.6 |
| 20260902021731 | 81 | 93 | 4.3 | 6.1 | 0.00 | 0.00 | 0.00 | 72 | 1017.6 |
| 20260902021231 | 82 | 70 | 3.5 | 5.2 | 0.00 | 0.00 | 0.00 | 71 | 1017.5 |
| 20260902020732 | 82 | 89 | 3.5 | 4.3 | 0.00 | 0.00 | 0.00 | 70 | 1017.5 |
| 20260902020232 | 82 | 119 | 1.7 | 3.5 | 0.00 | 0.00 | 0.00 | 70 | 1017.5 |
| 20260902015731 | 83 | 83 | 2.6 | 3.5 | 0.00 | 0.00 | 0.00 | 69 | 1017.5 |
| 20260902015231 | 83 | 79 | 2.6 | 3.5 | 0.00 | 0.00 | 0.00 | 68 | 1017.3 |
| 20260902014732 | 83 | 89 | 3.5 | 4.3 | 0.00 | 0.00 | 0.00 | 68 | 1017.3 |
| 20260902014231 | 83 | 91 | 2.6 | 6.1 | 0.00 | 0.00 | 0.00 | 68 | 1017.3 |
| 20260902013738 | 83 | 87 | 2.6 | 5.2 | 0.00 | 0.00 | 0.00 | 69 | 1017.3 |
| 20260902013231 | 82 | 92 | 3.5 | 5.2 | 0.00 | 0.00 | 0.00 | 69 | 1017.2 |
| 20260902012731 | 82 | 98 | 3.5 | 5.2 | 0.00 | 0.00 | 0.00 | 70 | 1017.2 |
| 20260902012232 | 82 | 97 | 3.5 | 5.2 | 0.00 | 0.00 | 0.00 | 71 | 1017.1 |
| 20260902011732 | 82 | 102 | 4.3 | 5.2 | 0.00 | 0.00 | 0.00 | 70 | 1017.1 |
| 20260902011231 | 82 | 96 | 3.5 | 5.2 | 0.00 | 0.00 | 0.00 | 71 | 1017.0 |
| 20260902010731 | 81 | 92 | 3.5 | 6.1 | 0.00 | 0.00 | 0.00 | 72 | 1017.0 |
| 20260902010231 | 82 | 109 | 3.5 | 5.2 | 0.00 | 0.00 | 0.00 | 72 | 1017.0 |
| 20260902005731 | 82 | 113 | 3.5 | 5.2 | 0.00 | 0.00 | 0.00 | 72 | 1017.0 |
| 20260902005232 | 82 | 111 | 3.5 | 5.2 | 0.00 | 0.00 | 0.00 | 71 | 1017.0 |
| 20260902004730 | 83 | 111 | 3.5 | 5.2 | 0.00 | 0.00 | 0.00 | 70 | 1017.0 |
| 20260902004231 | 83 | 113 | 3.5 | 6.1 | 0.00 | 0.00 | 0.00 | 69 | 1016.9 |
| 20260902003731 | 83 | 112 | 3.5 | 5.2 | 0.00 | 0.00 | 0.00 | 67 | 1016.9 |
| 20260902003231 | 84 | 107 | 3.5 | 5.2 | 0.00 | 0.00 | 0.00 | 66 | 1017.0 |
| 20260902002731 | 85 | 118 | 3.5 | 6.1 | 0.00 | 0.00 | 0.00 | 65 | 1017.0 |
| 20260902002231 | 85 | 114 | 3.5 | 5.2 | 0.00 | 0.00 | 0.00 | 63 | 1017.0 |
| 20260902001731 | 86 | 105 | 3.5 | 4.3 | 0.00 | 0.00 | 0.00 | 63 | 1017.0 |
| 20260902001231 | 86 | 111 | 3.5 | 5.2 | 0.00 | 0.00 | 0.00 | 61 | 1017.0 |
| 20260902000731 | 87 | 96 | 3.5 | 5.2 | 0.00 | 0.00 | 0.00 | 60 | 1017.0 |
| 20260902000233 | 87 | 80 | 3.5 | 6.1 | 0.00 | 0.00 | 0.00 | 59 | 1017.1 |
| 20260901235733 | 88 | 73 | 4.3 | 5.2 | 0.00 | 0.00 | 0.00 | 59 | 1017.1 |
| 20260901235231 | 88 | 79 | 3.5 | 5.2 | 0.00 | 0.00 | 0.00 | 58 | 1017.1 |
| 20260901234731 | 89 | 59 | 2.6 | 4.3 | 0.00 | 0.00 | 0.00 | 58 | 1017.1 |
| 20260901234231 | 89 | 69 | 2.6 | 4.3 | 0.00 | 0.00 | 0.00 | 57 | 1017.1 |
| 20260901233732 | 89 | 41 | 1.7 | 3.5 | 0.00 | 0.00 | 0.00 | 56 | 1017.2 |
| 20260901233231 | 90 | 38 | 2.6 | 5.2 | 0.00 | 0.00 | 0.00 | 55 | 1017.2 |
| 20260901232732 | 91 | 306 | 1.7 | 2.6 | 0.00 | 0.00 | 0.00 | 55 | 1017.3 |
| 20260901232231 | 91 | 26 | 1.7 | 2.6 | 0.00 | 0.00 | 0.00 | 53 | 1017.3 |